Weather History for Estevan, SK

Change the Weather History Date:

Saturday, October 6, 2012

  Actual Average Record
Temperature  
Mean Temperature 30 °F -  
Max Temperature 51 °F 57 °F 82 °F (2003)
Min Temperature 10 °F 30 °F 10 °F (2012)
Degree Days  
Heating Degree Days 34    
Moisture  
Dew Point 18 °F    
Average Humidity 63    
Maximum Humidity 96    
Minimum Humidity 24    
Precipitation  
Precipitation 0.00 in - - ()
Sea Level Pressure  
Sea Level Pressure 30.36 in    
Wind  
Wind Speed 7 mph ()    
Max Wind Speed 18 mph    
Max Gust Speed 23 mph    
Visibility 13.2 miles    
Events      
Averages and records for this station are not official NWS values.
T = Trace of Precipitation, MM = Missing Value Source: Averaged Metar Reports

Daily Weather History Graph

Daily Weather History Graph

Search for Another Location

Airport:

Trip Planner

Search our weather history database for the weather conditions in past years. The results will help you decide how hot, cold, wet, or windy it might be!

Date:

Astronomy

Oct. 06, 2012 Rise Set
Actual Time 6:59 AM CST 6:18 PM CST
Civil Twilight 6:28 AM CST 6:50 PM CST
Nautical Twilight 5:51 AM CST 7:27 PM CST
Astronomical Twilight 5:13 AM CST 8:04 PM CST
Moon 10:12 PM CST (10/6) 1:20 PM CST (10/6)
Length of Visible Light 12h 22m
Length of Day
11h 19m
Waning Gibbous, 65% of the Moon is Illuminated
Oct 6
Waning Gibbous
Oct 8
Last Quarter
Oct 15
New
Oct 21
First Quarter
Oct 29
Full

Hourly Weather History & Observations

Time (CST) Temp. Windchill Dew Point Humidity Pressure Visibility Wind Dir Wind Speed Gust Speed Precip Events Conditions
12:00 AM 18 °F - 14 °F 77% 30.52 in 15 mi North 5.8 mph - -   Mostly Cloudy
12:00 AM 17.6 °F 9.3 °F 14.0 °F 86% 30.52 in 15.0 mi North 5.8 mph - N/A   Mostly Cloudy
1:00 AM 17.6 °F 8.2 °F 14.0 °F 86% 30.52 in 15.0 mi North 6.9 mph - N/A   Mostly Cloudy
2:00 AM 15.8 °F 10.2 °F 12.2 °F 86% 30.51 in 15.0 mi NNW 3.5 mph - N/A   Mostly Cloudy
3:00 AM 14.0 °F 2.9 °F 12.2 °F 93% 30.51 in 15.0 mi NNW 8.1 mph - N/A   Scattered Clouds
4:00 AM 12.2 °F 4.3 °F 10.4 °F 92% 30.49 in 15.0 mi NNW 4.6 mph - N/A   Partly Cloudy
5:00 AM 12.2 °F - 10.4 °F 92% 30.49 in 15.0 mi North 2.3 mph - N/A   Partly Cloudy
6:00 AM 11 °F - 10 °F 96% 30.50 in 3 mi North 2.3 mph - -   Mist
6:00 AM 12.2 °F - 10.4 °F 92% 30.50 in 3.0 mi North 2.3 mph - N/A   Partly Cloudy
6:26 AM - - - N/A% - 2.0 mi NW 3.5 mph - N/A   Clear
6:52 AM - - - N/A% - 5.0 mi NNW 5.8 mph - N/A   Partly Cloudy
7:00 AM 10.4 °F 0.8 °F 8.6 °F 92% 30.49 in 7.0 mi NNW 5.8 mph - N/A   Partly Cloudy
8:00 AM 17.6 °F 9.3 °F 15.8 °F 93% 30.48 in 15.0 mi NNW 5.8 mph - N/A   Partly Cloudy
9:00 AM 24.8 °F 17.9 °F 19.4 °F 80% 30.46 in 15.0 mi WSW 5.8 mph - N/A   Partly Cloudy
10:00 AM 33.8 °F 27.7 °F 21.2 °F 60% 30.44 in 15.0 mi WSW 6.9 mph - N/A   Partly Cloudy
11:00 AM 41.0 °F 35.8 °F 23.0 °F 49% 30.42 in 15.0 mi WSW 8.1 mph - N/A   Partly Cloudy
12:00 PM 45 °F - 23 °F 29% 30.38 in 15 mi West 8.1 mph - -   Scattered Clouds
12:00 PM 44.6 °F 40.2 °F 23.0 °F 43% 30.38 in 15.0 mi WSW 8.1 mph - N/A   Partly Cloudy
1:00 PM 46.4 °F 39.5 °F 21.2 °F 37% 30.34 in 15.0 mi West 17.3 mph - N/A   Partly Cloudy
2:00 PM 48.2 °F - 21.2 °F 34% 30.30 in 15.0 mi WSW 17.3 mph 23.0 mph N/A   Partly Cloudy
3:00 PM 50.0 °F - 23.0 °F 35% 30.26 in 15.0 mi West 17.3 mph 23.0 mph N/A   Mostly Cloudy
4:00 PM 50.0 °F - 21.2 °F 32% 30.23 in 15.0 mi West 15.0 mph - N/A   Mostly Cloudy
5:00 PM 50.0 °F - 21.2 °F 32% 30.20 in 15.0 mi WSW 18.4 mph - N/A   Mostly Cloudy
6:00 PM 46 °F - 21 °F 24% 30.20 in 15 mi WSW 13.8 mph - -   Scattered Clouds
6:00 PM 46.4 °F 40.7 °F 21.2 °F 37% 30.20 in 15.0 mi WSW 12.7 mph - N/A   Mostly Cloudy
7:00 PM 39.2 °F 33.0 °F 21.2 °F 49% 30.18 in 15.0 mi SW 9.2 mph - N/A   Mostly Cloudy
8:00 PM 33.8 °F 26.4 °F 19.4 °F 56% 30.16 in 15.0 mi SW 9.2 mph - N/A   Mostly Cloudy
9:00 PM 35.6 °F 28.6 °F 23.0 °F 60% 30.14 in 15.0 mi SW 9.2 mph - N/A   Mostly Cloudy
10:00 PM 33.8 °F 25.8 °F 21.2 °F 60% 30.12 in 15.0 mi SW 10.4 mph - N/A   Mostly Cloudy
11:00 PM 33.8 °F 25.3 °F 23.0 °F 65% 30.10 in 15.0 mi SW 11.5 mph - N/A   Mostly Cloudy